User: anonymous   Login
Location: Caltech
(34.1382°N, 118.1253°W)
Time: 08:02:14
(UTC-08:00)
Language:

NOSS 3-2 (A) - Orbit

View from above orbital plane
View from above orbital plane
View from above satellite
View from above satellite

Ground track
Ground track

The orbit data is extracted from the following two-line orbital elements,

1 28095U 03054A   15052.81314373 0.00000000  00000-0  00000-0 0    02
2 28095  63.4290 311.8877 0230000 358.1391   1.8609 13.41306129    04
Epoch (UTC): 21 February 2015 19:30:55
Eccentricity: 0.0230000
inclination: 63.4290°
perigee height: 932 km
apogee height: 1276 km
right ascension of ascending node: 311.8877°
argument of perigee: 358.1391°
revolutions per day: 13.41306129
mean anomaly at epoch: 1.8609°
orbit number at epoch: 0

The dashed part of the orbit path shows where the satellite is in the earth's shadow,  

DLR